Total_Precipitation_Accumulation
0.08 0.06 0.07 0.06 0.06 0.04 0.04 0.04 0.05 0.04 0.02 0.02 0.02 0.01 0.02 0.02 0.02 0.02 0.02 0.01 0.00 0.01 0.01 0.00 0.01 0.02 0.01 0.00 0.00 0.00 0.00 0.00 0.00 0.00 0.00 0.00 0.00 0.00 0.00 0.00 0.00 0.00 0.00 0.00 0.00 0.00 0.00
0.08 0.08 0.07 0.07 0.05 0.04 0.04 0.04 0.04 0.03 0.02 0.02 0.01 0.01 0.00 0.01 0.02 0.02 0.01 0.00 0.01 0.01 0.01 0.01 0.01 0.03 0.01 0.00 0.00 0.00 0.00 0.00 0.00 0.00 0.00 0.00 0.00 0.00 0.00 0.00 0.00 0.00 0.00 0.00 0.00 0.00 0.00
0.10 0.09 0.08 0.08 0.06 0.06 0.05 0.04 0.03 0.03 0.04 0.03 0.02 0.02 0.01 0.00 0.01 0.01 0.01 0.01 0.00 0.01 0.01 0.01 0.02 0.04 0.01 0.00 0.00 0.00 0.00 0.00 0.00 0.00 0.00 0.00 0.00 0.00 0.00 0.00 0.00 0.00 0.00 0.00 0.00 0.00 0.00
0.11 0.10 0.10 0.11 0.09 0.07 0.06 0.04 0.04 0.03 0.04 0.03 0.03 0.02 0.01 0.00 0.00 0.00 0.01 0.00 0.00 0.01 0.01 0.01 0.02 0.03 0.00 0.00 0.00 0.00 0.00 0.00 0.00 0.00 0.00 0.00 0.00 0.00 0.00 0.00 0.00 0.00 0.00 0.00 0.00 0.00 0.00
0.13 0.12 0.10 0.10 0.10 0.09 0.07 0.06 0.04 0.02 0.03 0.03 0.03 0.02 0.02 0.01 0.01 0.01 0.02 0.00 0.00 0.01 0.01 0.01 0.01 0.01 0.00 0.00 0.00 0.00 0.00 0.00 0.00 0.00 0.00 0.00 0.00 0.00 0.00 0.00 0.00 0.00 0.00 0.00 0.00 0.00 0.00
0.14 0.12 0.09 0.08 0.09 0.09 0.09 0.08 0.06 0.05 0.05 0.05 0.04 0.04 0.03 0.02 0.00 0.01 0.01 0.00 0.00 0.00 0.00 0.00 0.01 0.00 0.00 0.00 0.00 0.00 0.00 0.01 0.02 0.00 0.00 0.00 0.00 0.00 0.00 0.00 0.00 0.00 0.00 0.00 0.00 0.00 0.00
0.14 0.11 0.09 0.09 0.09 0.09 0.09 0.10 0.12 0.10 0.06 0.05 0.04 0.04 0.04 0.03 0.01 0.03 0.01 0.00 0.00 0.00 0.00 0.00 0.00 0.00 0.00 0.00 0.00 0.00 0.00 0.00 0.01 0.00 0.01 0.03 0.00 0.00 0.01 0.00 0.00 0.00 0.00 0.00 0.00 0.00 0.00
0.14 0.14 0.13 0.13 0.14 0.14 0.15 0.15 0.13 0.10 0.08 0.06 0.06 0.06 0.05 0.03 0.04 0.06 0.01 0.00 0.00 0.00 0.00 0.00 0.00 0.00 0.00 0.00 0.00 0.00 0.00 0.00 0.00 0.01 0.03 0.01 0.00 0.00 0.00 0.00 0.00 0.00 0.00 0.00 0.00 0.00 0.00
0.18 0.16 0.15 0.15 0.16 0.14 0.12 0.13 0.13 0.13 0.11 0.10 0.08 0.07 0.07 0.05 0.06 0.02 0.01 0.00 0.00 0.01 0.01 0.00 0.00 0.00 0.00 0.00 0.00 0.00 0.00 0.00 0.00 0.00 0.01 0.03 0.00 0.00 0.00 0.00 0.00 0.00 0.00 0.00 0.00 0.00 0.00
0.23 0.20 0.17 0.15 0.16 0.15 0.14 0.13 0.12 0.11 0.11 0.10 0.11 0.10 0.09 0.12 0.04 0.01 0.01 0.00 0.02 0.06 0.03 0.00 0.00 0.00 0.00 0.00 0.00 0.00 0.00 0.00 0.00 0.00 0.00 0.02 0.00 0.00 0.00 0.00 0.00 0.00 0.00 0.00 0.00 0.00 0.00
0.21 0.20 0.18 0.17 0.16 0.15 0.13 0.11 0.11 0.12 0.14 0.18 0.16 0.11 0.16 0.24 0.15 0.10 0.02 0.00 0.10 0.12 0.02 0.00 0.00 0.00 0.00 0.00 0.00 0.00 0.00 0.00 0.00 0.00 0.00 0.03 0.00 0.00 0.00 0.00 0.00 0.01 0.00 0.00 0.00 0.00 0.02
0.30 0.22 0.20 0.19 0.18 0.16 0.15 0.15 0.16 0.16 0.15 0.17 0.21 0.18 0.27 0.24 0.12 0.02 0.01 0.08 0.24 0.23 0.02 0.00 0.00 0.00 0.00 0.00 0.00 0.00 0.00 0.00 0.00 0.00 0.00 0.00 0.01 0.01 0.00 0.00 0.00 0.00 0.00 0.00 0.00 0.00 0.04
0.45 0.34 0.28 0.24 0.21 0.18 0.17 0.18 0.16 0.15 0.15 0.17 0.22 0.23 0.30 0.14 0.08 0.08 0.17 0.45 0.63 0.14 0.00 0.00 0.00 0.00 0.00 0.00 0.00 0.00 0.00 0.00 0.00 0.00 0.00 0.00 0.00 0.01 0.01 0.00 0.00 0.00 0.00 0.02 0.17 0.09 0.03
0.61 0.46 0.37 0.27 0.23 0.20 0.18 0.17 0.18 0.18 0.16 0.23 0.24 0.25 0.24 0.14 0.07 0.10 0.35 0.87 0.38 0.01 0.00 0.00 0.00 0.00 0.00 0.00 0.00 0.00 0.00 0.00 0.00 0.00 0.00 0.00 0.00 0.00 0.01 0.00 0.01 0.00 0.00 0.03 0.15 0.12 0.11
0.70 0.60 0.47 0.38 0.30 0.26 0.23 0.19 0.21 0.22 0.26 0.28 0.45 0.36 0.32 0.11 0.08 0.30 0.79 0.65 0.11 0.04 0.00 0.00 0.00 0.00 0.00 0.00 0.00 0.00 0.00 0.00 0.00 0.00 0.01 0.01 0.02 0.02 0.01 0.00 0.00 0.01 0.00 0.01 0.03 0.05 0.10
0.80 0.75 0.62 0.47 0.36 0.28 0.28 0.30 0.27 0.30 0.35 0.47 0.57 0.58 0.26 0.10 0.36 0.82 1.16 0.46 0.02 0.01 0.00 0.00 0.00 0.00 0.01 0.00 0.00 0.00 0.00 0.00 0.00 0.00 0.00 0.02 0.06 0.01 0.00 0.00 0.00 0.00 0.00 0.01 0.01 0.06 0.05
0.91 0.80 0.70 0.60 0.52 0.42 0.43 0.43 0.46 0.41 0.43 0.72 1.26 1.19 0.28 0.16 1.09 1.74 1.10 0.25 0.02 0.00 0.01 0.02 0.01 0.04 0.04 0.06 0.03 0.01 0.03 0.10 0.05 0.02 0.03 0.03 0.08 0.07 0.02 0.00 0.00 0.00 0.00 0.00 0.01 0.00 0.02
1.09 1.03 0.78 0.72 0.63 0.52 0.55 0.58 0.61 0.62 0.71 1.42 1.99 1.45 0.40 0.45 1.43 1.19 0.38 0.10 0.05 0.01 0.01 0.05 0.02 0.02 0.16 0.20 0.10 0.06 0.14 0.17 0.11 0.07 0.03 0.04 0.06 0.04 0.02 0.02 0.00 0.00 0.00 0.01 0.01 0.01 0.01
1.04 1.10 0.90 0.77 0.78 0.67 0.69 0.78 0.77 0.79 1.11 1.79 2.35 1.37 1.17 0.86 0.87 0.28 0.16 0.15 0.09 0.06 0.03 0.04 0.06 0.05 0.09 0.14 0.10 0.15 0.14 0.12 0.16 0.10 0.09 0.07 0.08 0.03 0.02 0.04 0.04 0.03 0.00 0.00 0.00 0.00 0.00
1.02 1.07 0.91 0.89 0.90 0.88 0.78 0.92 1.17 1.14 1.28 2.01 2.85 1.94 2.09 1.56 0.56 0.20 0.19 0.24 0.18 0.07 0.06 0.04 0.02 0.02 0.04 0.04 0.04 0.09 0.18 0.16 0.05 0.08 0.11 0.09 0.06 0.06 0.06 0.08 0.03 0.04 0.02 0.00 0.01 0.01 0.00
1.05 0.96 0.92 0.90 0.95 1.06 1.06 1.02 1.26 1.52 1.70 3.45 3.94 1.37 0.64 0.99 0.45 0.13 0.19 0.23 0.20 0.17 0.08 0.07 0.09 0.06 0.04 0.06 0.04 0.04 0.14 0.17 0.13 0.11 0.16 0.20 0.11 0.04 0.02 0.01 0.00 0.01 0.04 0.01 0.02 0.02 0.02
1.03 0.93 0.87 0.92 1.00 1.18 1.31 1.30 1.35 1.83 2.47 4.83 4.08 0.79 0.21 0.10 0.13 0.32 0.22 0.12 0.10 0.11 0.18 0.13 0.12 0.10 0.08 0.09 0.08 0.10 0.10 0.21 0.16 0.14 0.21 0.30 0.30 0.11 0.04 0.01 0.00 0.01 0.00 0.01 0.00 0.00 0.00
0.84 0.87 0.76 0.82 0.87 0.96 1.10 1.33 1.51 2.20 4.06 6.19 3.16 0.44 0.34 0.26 0.19 0.33 0.28 0.12 0.09 0.07 0.06 0.08 0.08 0.10 0.14 0.09 0.12 0.10 0.09 0.09 0.11 0.11 0.17 0.25 0.40 0.35 0.16 0.07 0.05 0.07 0.00 0.00 0.00 0.00 0.01
0.60 0.68 0.70 0.62 0.74 0.70 0.76 0.87 1.20 2.01 4.33 4.53 2.18 0.40 0.78 0.60 0.23 0.15 0.05 0.06 0.06 0.05 0.07 0.04 0.09 0.12 0.07 0.11 0.10 0.09 0.08 0.06 0.05 0.05 0.07 0.20 0.31 0.35 0.21 0.21 0.32 0.10 0.04 0.03 0.02 0.02 0.01
0.56 0.61 0.70 0.62 0.67 0.72 0.69 0.68 0.91 1.20 2.91 4.04 2.43 0.72 0.67 0.56 0.16 0.11 0.10 0.12 0.11 0.09 0.09 0.08 0.08 0.17 0.19 0.27 0.26 0.19 0.11 0.10 0.03 0.04 0.06 0.06 0.17 0.45 0.40 0.37 0.21 0.16 0.14 0.11 0.11 0.12 0.05
0.56 0.64 0.75 0.70 0.64 0.68 0.66 0.64 0.70 0.75 1.49 3.37 3.53 1.66 1.35 0.77 0.25 0.08 0.09 0.09 0.15 0.27 0.24 0.13 0.23 0.21 0.32 0.45 0.53 0.29 0.14 0.13 0.11 0.10 0.04 0.05 0.09 0.32 0.29 0.26 0.11 0.17 0.10 0.06 0.04 0.19 0.08
0.53 0.65 0.74 0.77 0.68 0.65 0.69 0.61 0.49 0.60 1.02 1.99 2.68 2.01 2.91 1.79 0.28 0.16 0.16 0.10 0.10 0.38 0.51 0.33 0.42 0.47 0.47 0.48 0.41 0.19 0.10 0.08 0.11 0.30 0.24 0.09 0.15 0.26 0.17 0.25 0.06 0.07 0.12 0.14 0.54 0.49 0.23
0.54 0.68 0.67 0.69 0.62 0.65 0.74 0.62 0.48 0.60 1.09 1.61 1.54 1.19 3.10 1.87 0.43 0.29 0.20 0.09 0.08 0.40 0.67 0.46 0.62 0.60 0.70 0.54 0.30 0.15 0.06 0.06 0.06 0.18 0.49 0.28 0.22 0.18 0.24 0.27 0.10 0.04 0.17 0.48 0.72 0.41 0.52
0.50 0.66 0.65 0.67 0.54 0.52 0.66 0.64 0.63 0.76 1.31 1.45 1.24 1.11 2.01 2.12 0.91 0.43 0.33 0.12 0.08 0.16 0.46 0.60 0.50 0.38 0.28 0.37 0.23 0.19 0.13 0.11 0.09 0.11 0.41 0.44 0.28 0.33 0.19 0.15 0.17 0.16 0.18 0.10 0.07 0.08 0.07